[[{"header":{"parameterUnit":"m.s-1","parameterCategory":1,"la1":30.2991,"la2":30.254,"lo1":-89.0895,"lo2":-89.0444,"dy":0.0017,"dx":0.0017,"nx":28,"ny":28,"refTime":"2026-01-05T03:00:00:Z","depth":0,"parameterNumber":2,"parameterNumberName":"U-component_of_WINDS"},"data":[0,0,0,0,0,0,0,0,0,0,0,0,0,0,0,0,0,0,0,0,0,0,0,0,0,0,0,0,0,0,0,0,0,0,0,0,0,0,0,0,0,0,0,0,0,0,0,0,0,0,0,0,0,0,0,0,0,0,0.7247,0.7247,0,0.7287,0.7288,0.7288,0.7265,0.7264,0.7263,0.7262,0.7308,0.7311,0.7313,0,0,0,0,0,0,0,0,0,0,0,0,0,0.7156,0.7158,0.7247,0.7247,0.7248,0.7287,0.7288,0.7288,0.7265,0.7264,0.7263,0.7261,0.7308,0.731,0.7313,0,0,0,0,0,0,0,0,0,0,0,0,0,0.7196,0.7159,0.7247,0.7241,0.7241,0.7287,0.7288,0.7288,0.7266,0.7264,0.7262,0.7261,0.7307,0.731,0.7313,0.7369,0,0,0.7324,0.7325,0,0,0,0,0,0,0,0,0.7194,0.72,0.7242,0.7242,0.7242,0.7269,0.7273,0.7315,0.7266,0.7257,0.7262,0.726,0.7297,0.7301,0.7313,0.7371,0.7373,0.7324,0.7326,0.7328,0.7329,0,0,0,0,0,0,0,0.7191,0.7198,0.7263,0.7242,0.7242,0.7239,0.7242,0.7281,0.7286,0.7257,0.7256,0.726,0.7297,0.7309,0.7314,0.7374,0.7324,0.7327,0.7329,0.7331,0.7482,0.7484,0,0,0,0,0,0,0.7188,0.7196,0.7262,0.7264,0.7213,0.7241,0.7246,0.7262,0.7285,0.7287,0.7262,0.7259,0.7304,0.731,0.7315,0.7383,0.7328,0.7331,0.7333,0.748,0.7482,0.7484,0,0,0,0,0,0,0.7186,0.7194,0.726,0.7229,0.7237,0.7245,0.7264,0.7264,0.7276,0.7289,0.729,0.7273,0.7303,0.731,0.7356,0.7385,0.7333,0.7336,0.7478,0.7481,0.7483,0.7519,0,0,0,0,0,0,0.7184,0.7194,0.7213,0.723,0.7239,0.7298,0.7265,0.7266,0.7282,0.7279,0.73,0.7302,0.7302,0.7351,0.7359,0.7388,0.7338,0.7475,0.7479,0.7482,0.7515,0.7523,0.7529,0,0,0,0,0,0.7181,0.7223,0.7214,0.7223,0.7264,0.73,0.7306,0.7304,0.7284,0.7305,0.7313,0.7301,0.7379,0.7356,0.7365,0.7396,0.7473,0.7478,0.7482,0.7512,0.7521,0.7529,0,0,0,0,0,0,0.7211,0.7225,0.7216,0.7264,0.7281,0.7296,0.7322,0.7313,0.7337,0.7333,0.7331,0.7337,0.7384,0.7394,0.7367,0.7451,0.7424,0.743,0.7444,0.7452,0.7459,0.7457,0.7341,0,0,0,0,0,0.7223,0.7249,0.726,0.7302,0.7311,0.7315,0.7331,0.7328,0.7346,0.7354,0.7365,0.7385,0.7414,0.7433,0.7461,0.7516,0.7522,0.7542,0.7549,0.7554,0.7561,0.7593,0.7603,0.7499,0.7499,0.7499,0,0,0.7249,0.7259,0.7277,0.7309,0.7321,0.7351,0.7322,0.7354,0.7377,0.7359,0.7403,0.7412,0.7434,0.7485,0.7508,0.7495,0.7591,0.756,0.7564,0.7568,0.7599,0.7609,0.7618,0.7502,0.7501,0.7501,0,0,0.7311,0.7321,0.7357,0.737,0.7389,0.7392,0.7401,0.7418,0.7423,0.7466,0.7454,0.7482,0.7531,0.7548,0.7563,0.7632,0.7623,0.7641,0.7678,0.771,0.7718,0.7726,0.7753,0.7762,0.7647,0.7647,0.7647,0,0.7341,0.7384,0.7378,0.7411,0.7427,0.741,0.7449,0.7462,0.749,0.7502,0.7486,0.7549,0.7562,0.7618,0.7635,0.7647,0.7659,0.764,0.7717,0.7725,0.7731,0.7757,0.7767,0.7649,0.7649,0.7649,0.7649,0,0.7421,0.7451,0.7478,0.7504,0.7523,0.7558,0.756,0.758,0.7575,0.758,0.7626,0.7641,0.7672,0.7685,0.7681,0.7741,0.7732,0.7717,0.7689,0.7744,0.7768,0.7778,0.7653,0.7652,0.7651,0.7651,0,0,0.7505,0.7527,0.7537,0.755,0.7569,0.7594,0.7629,0.7658,0.7676,0.7696,0.7728,0.777,0.7756,0.7773,0.7771,0.7798,0.7855,0.778,0.778,0.7796,0.7926,0.7939,0.7951,0.7848,0.785,0.7852,0.7925,0,0.7571,0.7632,0.7628,0.7686,0.7715,0.77,0.7732,0.7748,0.7754,0.7781,0.7788,0.7819,0.7796,0.7807,0.7833,0.7843,0.7882,0.7837,0.7881,0.7883,0.7879,0.7963,0.7977,0.8046,0.7934,0.7936,0.7937,0,0.7655,0.7677,0.7738,0.7755,0.7767,0.7795,0.7822,0.7847,0.7866,0.7869,0.7888,0.7881,0.792,0.789,0.7945,0.7915,0.7932,0.794,0.7942,0.7949,0.7915,0.7974,0.8067,0.8078,0.7951,0.795,0.7949,0,0.7714,0.7758,0.78,0.7811,0.7831,0.7852,0.7861,0.7879,0.7897,0.7921,0.7933,0.7962,0.7978,0.8002,0.8004,0.7981,0.8061,0.803,0.8066,0.8066,0.8086,0.8085,0.8185,0.8093,0.8092,0.8092,0.8092,0,0.7789,0.7828,0.7827,0.7854,0.7897,0.7893,0.7937,0.7945,0.796,0.799,0.7978,0.8007,0.8007,0.8037,0.8039,0.8086,0.8093,0.8098,0.8098,0.81,0.81,0.8114,0.811,0.8095,0.8094,0.8094,0.8093,0,0.7863,0.7863,0.7909,0.7924,0.7929,0.796,0.7974,0.8001,0.8005,0.8042,0.8051,0.8059,0.8093,0.8097,0.8137,0.8139,0.8196,0.8191,0.819,0.819,0.8227,0.8225,0.8342,0.8358,0.8252,0.8253,0.8254,0,0.7912,0.7941,0.7958,0.7977,0.7987,0.8016,0.8034,0.8032,0.8051,0.8076,0.8101,0.8133,0.816,0.8216,0.8226,0.8258,0.8255,0.8293,0.8259,0.8261,0.8259,0.8258,0.8262,0.8301,0.8302,0.8303,0.8304,0,0.8,0.7999,0.8024,0.8051,0.8072,0.8093,0.8113,0.8129,0.8128,0.8152,0.8186,0.8206,0.8247,0.8281,0.8312,0.8324,0.8316,0.8314,0.8325,0.8329,0.8328,0.8332,0.8211,0.8312,0.8311,0.8311,0.831,0.831,0.8065,0.8091,0.8107,0.8137,0.8151,0.817,0.8196,0.8203,0.823,0.8263,0.8259,0.8298,0.8319,0.8359,0.8373,0.8405,0.8393,0.8407,0.8412,0.8416,0.8421,0.832,0.8411,0.841,0.841,0.841,0.841,0,0.8155,0.8164,0.8191,0.8218,0.8242,0.8229,0.825,0.8272,0.8305,0.8324,0.835,0.8391,0.8423,0.8436,0.8469,0.8492,0.8489,0.8501,0.8501,0.8505,0.8429,0.8418,0.8503,0.8503,0.8503,0.8503,0.8503,0.8503,0.8204,0.8248,0.8249,0.8301,0.8311,0.8348,0.8361,0.838,0.8395,0.844,0.8467,0.8474,0.8491,0.8525,0.8556,0.8559,0.8573,0.8588,0.859,0.8519,0.851,0.8501,0.8491,0.859,0.859,0.8663,0.8664,0.8664]},{"header":{"parameterUnit":"m.s-1","parameterCategory":1,"la1":30.2991,"la2":30.254,"lo1":-89.0895,"lo2":-89.0444,"dy":0.0017,"dx":0.0017,"nx":28,"ny":28,"refTime":"2026-01-05T03:00:00:Z","depth":0,"parameterNumber":3,"parameterNumberName":"V-component_of_WINDS"},"data":[0,0,0,0,0,0,0,0,0,0,0,0,0,0,0,0,0,0,0,0,0,0,0,0,0,0,0,0,0,0,0,0,0,0,0,0,0,0,0,0,0,0,0,0,0,0,0,0,0,0,0,0,0,0,0,0,0,0,2.2872,2.2872,0,2.2855,2.2855,2.2855,2.2796,2.2795,2.2794,2.2792,2.2776,2.2777,2.2777,0,0,0,0,0,0,0,0,0,0,0,0,0,2.2855,2.2855,2.2872,2.2872,2.2872,2.2855,2.2855,2.2855,2.2797,2.2795,2.2793,2.2792,2.2776,2.2776,2.2777,0,0,0,0,0,0,0,0,0,0,0,0,0,2.2853,2.2855,2.2872,2.2841,2.2838,2.2855,2.2855,2.2855,2.2797,2.2795,2.2793,2.2791,2.2775,2.2776,2.2778,2.2825,0,0,2.2781,2.2782,0,0,0,0,0,0,0,0,2.2853,2.2853,2.2845,2.2843,2.284,2.2826,2.2843,2.2845,2.2797,2.2812,2.2792,2.279,2.2794,2.2794,2.2795,2.2824,2.2823,2.2781,2.2782,2.2782,2.2783,0,0,0,0,0,0,0,2.2853,2.2854,2.2865,2.2845,2.2842,2.2828,2.2825,2.2843,2.2815,2.2811,2.2807,2.2805,2.2792,2.2794,2.2794,2.2823,2.2781,2.2782,2.2783,2.2783,2.2891,2.2893,0,0,0,0,0,0,2.2857,2.2854,2.2866,2.2865,2.2841,2.283,2.2827,2.2832,2.2814,2.281,2.2807,2.2803,2.2793,2.2793,2.2793,2.2849,2.2782,2.2784,2.2784,2.2889,2.2892,2.2894,0,0,0,0,0,0,2.2857,2.2859,2.2867,2.2858,2.2858,2.2832,2.2839,2.2833,2.2835,2.2811,2.2806,2.2814,2.2791,2.2792,2.2818,2.2847,2.2784,2.2785,2.2887,2.289,2.2893,2.2959,0,0,0,0,0,0,2.2857,2.2859,2.2877,2.2859,2.2859,2.2891,2.284,2.2834,2.2837,2.2831,2.2817,2.2812,2.279,2.2816,2.2819,2.2848,2.2786,2.2884,2.2888,2.2892,2.2954,2.2964,2.2973,0,0,0,0,0,2.2857,2.2896,2.2878,2.288,2.288,2.2893,2.2893,2.2866,2.2839,2.2857,2.2842,2.2813,2.2843,2.2819,2.2822,2.2852,2.2882,2.2887,2.2892,2.295,2.2962,2.2973,0,0,0,0,0,0,2.2917,2.2893,2.2873,2.2907,2.2903,2.2883,2.2904,2.288,2.2883,2.2877,2.2843,2.2841,2.2872,2.2864,2.2838,2.2897,2.2858,2.2863,2.2901,2.2913,2.2922,2.2924,2.2787,0,0,0,0,0,2.2935,2.2947,2.2925,2.2958,2.2956,2.2931,2.2936,2.2915,2.2909,2.2907,2.2894,2.289,2.2898,2.2905,2.2911,2.2952,2.2949,2.2974,2.2983,2.2991,2.2997,2.302,2.3031,2.291,2.291,2.291,0,0,2.2971,2.2959,2.2969,2.297,2.2964,2.2978,2.293,2.2946,2.2957,2.291,2.2934,2.2924,2.2917,2.2951,2.2966,2.2946,2.3029,2.2997,2.3003,2.3005,2.3026,2.3037,2.3048,2.2913,2.2913,2.2912,0,0,2.3044,2.3036,2.3063,2.3058,2.305,2.3033,2.304,2.3024,2.3016,2.304,2.3005,2.3017,2.3032,2.3029,2.3029,2.3103,2.3076,2.3105,2.3155,2.3177,2.3187,2.3195,2.3223,2.3234,2.3111,2.3111,2.3111,0,2.309,2.311,2.308,2.31,2.3102,2.3059,2.3087,2.3084,2.3079,2.3081,2.3058,2.3078,2.3069,2.3103,2.3122,2.3122,2.313,2.3108,2.3188,2.3196,2.3203,2.323,2.324,2.3115,2.3114,2.3114,2.3114,0,2.3168,2.3183,2.3206,2.3202,2.3206,2.323,2.3204,2.3212,2.3191,2.3177,2.3203,2.3191,2.3196,2.3202,2.3182,2.3234,2.3222,2.3194,2.3154,2.3219,2.3244,2.3253,2.312,2.3119,2.3118,2.3117,0,0,2.328,2.326,2.3269,2.3268,2.3256,2.3267,2.3289,2.3293,2.3301,2.3299,2.3318,2.3332,2.3306,2.3307,2.3286,2.3306,2.3367,2.3276,2.3275,2.3295,2.3425,2.3448,2.346,2.3348,2.335,2.3352,2.3427,0,2.3352,2.3389,2.3362,2.3404,2.3418,2.3378,2.3397,2.3393,2.338,2.339,2.3375,2.3387,2.3352,2.3352,2.337,2.3356,2.3393,2.335,2.3367,2.3368,2.3372,2.3472,2.3496,2.3567,2.3436,2.3437,2.3439,0,2.344,2.3443,2.3486,2.3473,2.3477,2.3495,2.3498,2.3508,2.3502,2.3491,2.3492,2.3466,2.3488,2.3448,2.3477,2.3449,2.3454,2.3448,2.345,2.3453,2.3409,2.3479,2.3589,2.3601,2.3453,2.3452,2.3451,0,2.352,2.3534,2.3562,2.3562,2.3546,2.356,2.3554,2.3546,2.3551,2.3553,2.3556,2.3561,2.3564,2.3568,2.3545,2.3517,2.3578,2.3536,2.3572,2.3572,2.3588,2.3588,2.3702,2.3588,2.3588,2.3587,2.3587,0,2.3604,2.3633,2.3598,2.3616,2.3647,2.3616,2.3648,2.3638,2.3631,2.3647,2.3612,2.3627,2.3594,2.3606,2.3587,2.3616,2.3617,2.361,2.3605,2.3615,2.3616,2.3619,2.3614,2.359,2.359,2.3589,2.3589,0,2.3699,2.3677,2.3706,2.3689,2.3685,2.3709,2.3695,2.3711,2.3696,2.3716,2.3719,2.3695,2.3708,2.3684,2.3693,2.3681,2.3722,2.3708,2.3724,2.3721,2.3759,2.3757,2.3882,2.3897,2.3771,2.3772,2.3773,0,2.3755,2.3777,2.3763,2.3771,2.3767,2.378,2.3785,2.3756,2.3763,2.3758,2.3775,2.3784,2.3791,2.3813,2.3797,2.3804,2.3791,2.3834,2.3792,2.3801,2.3795,2.3795,2.3797,2.3844,2.3845,2.3847,2.3848,0,2.3858,2.3846,2.3855,2.386,2.3867,2.387,2.387,2.3878,2.3848,2.3857,2.387,2.3875,2.3884,2.3895,2.3898,2.3892,2.3866,2.3861,2.387,2.3881,2.389,2.3888,2.3751,2.3859,2.3858,2.3857,2.3856,2.3856,2.3937,2.3955,2.3948,2.3959,2.3956,2.3958,2.3972,2.3959,2.3969,2.3975,2.3957,2.3974,2.3969,2.3971,2.3968,2.3981,2.3962,2.3975,2.3978,2.3983,2.399,2.3886,2.3981,2.3981,2.3981,2.398,2.398,0,2.404,2.4034,2.4044,2.4046,2.4055,2.4028,2.4027,2.4037,2.4053,2.4049,2.4057,2.4072,2.4082,2.4067,2.4075,2.4089,2.4077,2.4092,2.4092,2.4091,2.4005,2.3998,2.4102,2.4102,2.4102,2.4102,2.4101,2.4101,2.4094,2.4124,2.4111,2.4139,2.4133,2.415,2.4152,2.4153,2.4151,2.417,2.4178,2.4168,2.416,2.4168,2.4176,2.4171,2.4177,2.4197,2.4189,2.4109,2.4097,2.4086,2.4079,2.4198,2.4198,2.4274,2.4274,2.4275]}]]